Year,Month,Day,Hour,Minute,Value (Times are PST for temperature in C)
2008,10,20,00,00,8.00
2008,10,20,00,01,8.00
2008,10,20,00,02,8.00
2008,10,20,00,03,8.00
2008,10,20,00,04,8.00
2008,10,20,00,05,8.00
2008,10,20,00,06,8.00
2008,10,20,00,07,8.00
2008,10,20,00,08,8.00
2008,10,20,00,09,8.00
2008,10,20,00,10,8.10
2008,10,20,00,11,8.10
2008,10,20,00,12,8.10
2008,10,20,00,13,8.10
2008,10,20,00,14,8.00
2008,10,20,00,15,8.00
2008,10,20,00,16,8.00
2008,10,20,00,17,8.00
2008,10,20,00,18,8.00
2008,10,20,00,19,8.00
2008,10,20,00,20,8.00
2008,10,20,00,21,8.00
2008,10,20,00,22,8.00
2008,10,20,00,23,8.00
2008,10,20,00,24,8.00
2008,10,20,00,25,8.00
2008,10,20,00,26,8.00
2008,10,20,00,27,8.00
2008,10,20,00,28,8.00
2008,10,20,00,29,8.00
2008,10,20,00,30,8.00
2008,10,20,00,31,8.00
2008,10,20,00,32,8.00
2008,10,20,00,33,8.00
2008,10,20,00,34,8.00
2008,10,20,00,35,8.00
2008,10,20,00,36,8.00
2008,10,20,00,37,8.00
2008,10,20,00,38,8.00
2008,10,20,00,39,8.00
2008,10,20,00,40,8.00
2008,10,20,00,41,8.00
2008,10,20,00,42,8.00
2008,10,20,00,43,8.00
2008,10,20,00,44,8.00
2008,10,20,00,45,8.00
2008,10,20,00,46,8.00
2008,10,20,00,47,8.00
2008,10,20,00,48,8.00
2008,10,20,00,49,8.00
2008,10,20,00,50,8.00
2008,10,20,00,51,8.00
2008,10,20,00,52,8.00
2008,10,20,00,53,8.00
2008,10,20,00,54,8.00
2008,10,20,00,55,8.00
2008,10,20,00,56,8.00
2008,10,20,00,57,8.00
2008,10,20,00,58,8.00
2008,10,20,00,59,8.00
2008,10,20,01,00,8.00
2008,10,20,01,01,8.00
2008,10,20,01,02,8.10
2008,10,20,01,03,8.10
2008,10,20,01,04,8.00
2008,10,20,01,05,8.00
2008,10,20,01,06,8.00
2008,10,20,01,07,8.00
2008,10,20,01,08,8.00
2008,10,20,01,09,8.00
2008,10,20,01,10,8.00
2008,10,20,01,11,8.00
2008,10,20,01,12,8.00
2008,10,20,01,13,8.00
2008,10,20,01,14,8.00
2008,10,20,01,15,8.00
2008,10,20,01,16,8.00
2008,10,20,01,17,8.00
2008,10,20,01,18,8.00
2008,10,20,01,19,8.00
2008,10,20,01,20,8.00
2008,10,20,01,21,8.00
2008,10,20,01,22,8.00
2008,10,20,01,23,8.00
2008,10,20,01,24,8.00
2008,10,20,01,25,8.00
2008,10,20,01,26,8.00
2008,10,20,01,27,8.00
2008,10,20,01,28,8.00
2008,10,20,01,29,8.00
2008,10,20,01,30,8.00
2008,10,20,01,31,8.00
2008,10,20,01,32,8.10
2008,10,20,01,33,8.10
2008,10,20,01,34,8.10
2008,10,20,01,35,8.10
2008,10,20,01,36,8.10
2008,10,20,01,37,8.10
2008,10,20,01,38,8.10
2008,10,20,01,39,8.10
2008,10,20,01,40,8.10
2008,10,20,01,41,8.10
2008,10,20,01,42,8.10
2008,10,20,01,43,8.10
2008,10,20,01,44,8.10
2008,10,20,01,45,8.10
2008,10,20,01,46,8.10
2008,10,20,01,47,8.10
2008,10,20,01,48,8.10
2008,10,20,01,49,8.10
2008,10,20,01,50,8.10
2008,10,20,01,51,8.10
2008,10,20,01,52,8.10
2008,10,20,01,53,8.10
2008,10,20,01,54,8.10
2008,10,20,01,55,8.10
2008,10,20,01,56,8.10
2008,10,20,01,57,8.10
2008,10,20,01,58,8.10
2008,10,20,01,59,8.10
2008,10,20,02,00,8.10
2008,10,20,02,01,8.10
2008,10,20,02,02,8.10
2008,10,20,02,03,8.10
2008,10,20,02,04,8.10
2008,10,20,02,05,8.10
2008,10,20,02,06,8.10
2008,10,20,02,07,8.10
2008,10,20,02,08,8.10
2008,10,20,02,09,8.10
2008,10,20,02,10,8.10
2008,10,20,02,11,8.10
2008,10,20,02,12,8.00
2008,10,20,02,13,8.00
2008,10,20,02,14,8.00
2008,10,20,02,15,8.00
2008,10,20,02,16,8.00
2008,10,20,02,17,8.00
2008,10,20,02,18,8.00
2008,10,20,02,19,8.00
2008,10,20,02,20,7.90
2008,10,20,02,21,7.90
2008,10,20,02,22,7.90
2008,10,20,02,23,7.90
2008,10,20,02,24,7.90
2008,10,20,02,25,7.90
2008,10,20,02,26,7.90
2008,10,20,02,27,7.90
2008,10,20,02,28,7.90
2008,10,20,02,29,8.00
2008,10,20,02,30,7.90
2008,10,20,02,31,7.90
2008,10,20,02,32,7.90
2008,10,20,02,33,7.90
2008,10,20,02,34,7.90
2008,10,20,02,35,7.90
2008,10,20,02,36,7.90
2008,10,20,02,37,7.90
2008,10,20,02,38,7.90
2008,10,20,02,39,7.90
2008,10,20,02,40,7.90
2008,10,20,02,41,7.90
2008,10,20,02,42,7.90
2008,10,20,02,43,7.90
2008,10,20,02,44,7.90
2008,10,20,02,45,7.90
2008,10,20,02,46,7.90
2008,10,20,02,47,7.90
2008,10,20,02,48,7.90
2008,10,20,02,49,7.90
2008,10,20,02,50,7.90
2008,10,20,02,51,7.90
2008,10,20,02,52,7.90
2008,10,20,02,53,7.90
2008,10,20,02,54,8.00
2008,10,20,02,55,8.00
2008,10,20,02,56,8.00
2008,10,20,02,57,8.00
2008,10,20,02,58,8.00
2008,10,20,02,59,8.00
2008,10,20,03,00,8.00
2008,10,20,03,01,8.00
2008,10,20,03,02,8.00
2008,10,20,03,03,8.00
2008,10,20,03,04,8.10
2008,10,20,03,05,8.10
2008,10,20,03,06,8.10
2008,10,20,03,07,8.10
2008,10,20,03,08,8.10
2008,10,20,03,09,8.10
2008,10,20,03,10,8.20
2008,10,20,03,11,8.20
2008,10,20,03,12,8.20
2008,10,20,03,13,8.20
2008,10,20,03,14,8.20
2008,10,20,03,15,8.20
2008,10,20,03,16,8.20
2008,10,20,03,17,8.20
2008,10,20,03,18,8.20
2008,10,20,03,19,8.20
2008,10,20,03,20,8.20
2008,10,20,03,21,8.20
2008,10,20,03,22,8.20
2008,10,20,03,23,8.20
2008,10,20,03,24,8.20
2008,10,20,03,25,8.20
2008,10,20,03,26,8.20
2008,10,20,03,27,8.20
2008,10,20,03,28,8.20
2008,10,20,03,29,8.20
2008,10,20,03,30,8.20
2008,10,20,03,31,8.20
2008,10,20,03,32,8.20
2008,10,20,03,33,8.20
2008,10,20,03,34,8.20
2008,10,20,03,35,8.30
2008,10,20,03,36,8.30
2008,10,20,03,37,8.30
2008,10,20,03,38,8.30
2008,10,20,03,39,8.30
2008,10,20,03,40,8.30
2008,10,20,03,41,8.30
2008,10,20,03,42,8.30
2008,10,20,03,43,8.30
2008,10,20,03,44,8.30
2008,10,20,03,45,8.30
2008,10,20,03,46,8.30
2008,10,20,03,47,8.30
2008,10,20,03,48,8.30
2008,10,20,03,49,8.40
2008,10,20,03,50,8.40
2008,10,20,03,51,8.40
2008,10,20,03,52,8.40
2008,10,20,03,53,8.40
2008,10,20,03,54,8.40
2008,10,20,03,55,8.40
2008,10,20,03,56,8.40
2008,10,20,03,57,8.50
2008,10,20,03,58,8.50
2008,10,20,03,59,8.50
2008,10,20,04,00,8.50
2008,10,20,04,01,8.50
2008,10,20,04,02,8.50
2008,10,20,04,03,8.50
2008,10,20,04,04,8.50
2008,10,20,04,05,8.50
2008,10,20,04,06,8.60
2008,10,20,04,07,8.60
2008,10,20,04,08,8.60
2008,10,20,04,09,8.60
2008,10,20,04,10,8.60
2008,10,20,04,11,8.60
2008,10,20,04,12,8.60
2008,10,20,04,13,8.60
2008,10,20,04,14,8.60
2008,10,20,04,15,8.60
2008,10,20,04,16,8.60
2008,10,20,04,17,8.60
2008,10,20,04,18,8.60
2008,10,20,04,19,8.60
2008,10,20,04,20,8.60
2008,10,20,04,21,8.60
2008,10,20,04,22,8.60
2008,10,20,04,23,8.60
2008,10,20,04,24,8.60
2008,10,20,04,25,8.60
2008,10,20,04,26,8.60
2008,10,20,04,27,8.60
2008,10,20,04,28,8.60
2008,10,20,04,29,8.60
2008,10,20,04,30,8.60
2008,10,20,04,31,8.60
2008,10,20,04,32,8.60
2008,10,20,04,33,8.60
2008,10,20,04,34,8.60
2008,10,20,04,35,8.60
2008,10,20,04,36,8.60
2008,10,20,04,37,8.60
2008,10,20,04,38,8.60
2008,10,20,04,39,8.60
2008,10,20,04,40,8.60
2008,10,20,04,41,8.60
2008,10,20,04,42,8.60
2008,10,20,04,43,8.60
2008,10,20,04,44,8.70
2008,10,20,04,45,8.70
2008,10,20,04,46,8.70
2008,10,20,04,47,8.70
2008,10,20,04,48,8.70
2008,10,20,04,49,8.70
2008,10,20,04,50,8.70
2008,10,20,04,51,8.70
2008,10,20,04,52,8.70
2008,10,20,04,53,8.70
2008,10,20,04,54,8.70
2008,10,20,04,55,8.70
2008,10,20,04,56,8.70
2008,10,20,04,57,8.70
2008,10,20,04,58,8.70
2008,10,20,04,59,8.70
2008,10,20,05,00,8.70
2008,10,20,05,01,8.70
2008,10,20,05,02,8.70
2008,10,20,05,03,8.70
2008,10,20,05,04,8.70
2008,10,20,05,05,8.70
2008,10,20,05,06,8.70
2008,10,20,05,07,8.70
2008,10,20,05,08,8.70
2008,10,20,05,09,8.70
2008,10,20,05,10,8.70
2008,10,20,05,11,8.70
2008,10,20,05,12,8.70
2008,10,20,05,13,8.70
2008,10,20,05,14,8.70
2008,10,20,05,15,8.70
2008,10,20,05,16,8.60
2008,10,20,05,17,8.60
2008,10,20,05,18,8.50
2008,10,20,05,19,8.50
2008,10,20,05,20,8.40
2008,10,20,05,21,8.40
2008,10,20,05,22,8.40
2008,10,20,05,23,8.40
2008,10,20,05,24,8.30
2008,10,20,05,25,8.30
2008,10,20,05,26,8.30
2008,10,20,05,27,8.30
2008,10,20,05,28,8.30
2008,10,20,05,29,8.20
2008,10,20,05,30,8.20
2008,10,20,05,31,8.20
2008,10,20,05,32,8.20
2008,10,20,05,33,8.20
2008,10,20,05,34,8.20
2008,10,20,05,35,8.20
2008,10,20,05,36,8.20
2008,10,20,05,37,8.10
2008,10,20,05,38,8.10
2008,10,20,05,39,8.10
2008,10,20,05,40,8.10
2008,10,20,05,41,8.10
2008,10,20,05,42,8.10
2008,10,20,05,43,8.00
2008,10,20,05,44,8.00
2008,10,20,05,45,8.10
2008,10,20,05,46,8.10
2008,10,20,05,47,8.10
2008,10,20,05,48,8.10
2008,10,20,05,49,8.10
2008,10,20,05,50,8.10
2008,10,20,05,51,8.10
2008,10,20,05,52,8.10
2008,10,20,05,53,8.10
2008,10,20,05,54,8.10
2008,10,20,05,55,8.10
2008,10,20,05,56,8.10
2008,10,20,05,57,8.10
2008,10,20,05,58,8.10
2008,10,20,05,59,8.10
2008,10,20,06,00,8.10
2008,10,20,06,01,8.10
2008,10,20,06,02,8.20
2008,10,20,06,03,8.20
2008,10,20,06,04,8.20
2008,10,20,06,05,8.20
2008,10,20,06,06,8.20
2008,10,20,06,07,8.20
2008,10,20,06,08,8.20
2008,10,20,06,09,8.20
2008,10,20,06,10,8.20
2008,10,20,06,11,8.20
2008,10,20,06,12,8.20
2008,10,20,06,13,8.20
2008,10,20,06,14,8.20
2008,10,20,06,15,8.20
2008,10,20,06,16,8.20
2008,10,20,06,17,8.20
2008,10,20,06,18,8.20
2008,10,20,06,19,8.20
2008,10,20,06,20,8.20
2008,10,20,06,21,8.20
2008,10,20,06,22,8.20
2008,10,20,06,23,8.20
2008,10,20,06,24,8.20
2008,10,20,06,25,8.20
2008,10,20,06,26,8.20
2008,10,20,06,27,8.30
2008,10,20,06,28,8.30
2008,10,20,06,29,8.30
2008,10,20,06,30,8.30
2008,10,20,06,31,8.30
2008,10,20,06,32,8.30
2008,10,20,06,33,8.30
2008,10,20,06,34,8.40
2008,10,20,06,35,8.40
2008,10,20,06,36,8.40
2008,10,20,06,37,8.40
2008,10,20,06,38,8.40
2008,10,20,06,39,8.40
2008,10,20,06,40,8.40
2008,10,20,06,41,8.40
2008,10,20,06,42,8.40
2008,10,20,06,43,8.40
2008,10,20,06,44,8.40
2008,10,20,06,45,8.40
2008,10,20,06,46,8.40
2008,10,20,06,47,8.40
2008,10,20,06,48,8.40
2008,10,20,06,49,8.40
2008,10,20,06,50,8.50
2008,10,20,06,51,8.50
2008,10,20,06,52,8.50
2008,10,20,06,53,8.50
2008,10,20,06,54,8.50
2008,10,20,06,55,8.50
2008,10,20,06,56,8.50
2008,10,20,06,57,8.50
2008,10,20,06,58,8.50
2008,10,20,06,59,8.50
2008,10,20,07,00,8.60
2008,10,20,07,01,8.60
2008,10,20,07,02,8.60
2008,10,20,07,03,8.60
2008,10,20,07,04,8.60
2008,10,20,07,05,8.60
2008,10,20,07,06,8.60
2008,10,20,07,07,8.60
2008,10,20,07,08,8.60
2008,10,20,07,09,8.60
2008,10,20,07,10,8.60
2008,10,20,07,11,8.60
2008,10,20,07,12,8.60
2008,10,20,07,13,8.60
2008,10,20,07,14,8.60
2008,10,20,07,15,8.60
2008,10,20,07,16,8.60
2008,10,20,07,17,8.60
2008,10,20,07,18,8.60
2008,10,20,07,19,8.60
2008,10,20,07,20,8.60
2008,10,20,07,21,8.60
2008,10,20,07,22,8.60
2008,10,20,07,23,8.60
2008,10,20,07,24,8.60
2008,10,20,07,25,8.60
2008,10,20,07,26,8.60
2008,10,20,07,27,8.60
2008,10,20,07,28,8.60
2008,10,20,07,29,8.60
2008,10,20,07,30,8.60
2008,10,20,07,31,8.60
2008,10,20,07,32,8.60
2008,10,20,07,33,8.60
2008,10,20,07,34,8.60
2008,10,20,07,35,8.60
2008,10,20,07,36,8.50
2008,10,20,07,37,8.50
2008,10,20,07,38,8.50
2008,10,20,07,39,8.50
2008,10,20,07,40,8.50
2008,10,20,07,41,8.60
2008,10,20,07,42,8.60
2008,10,20,07,43,8.60
2008,10,20,07,44,8.60
2008,10,20,07,45,8.60
2008,10,20,07,46,8.60
2008,10,20,07,47,8.60
2008,10,20,07,48,8.70
2008,10,20,07,49,8.70
2008,10,20,07,50,8.70
2008,10,20,07,51,8.70
2008,10,20,07,52,8.70
2008,10,20,07,53,8.70
2008,10,20,07,54,8.70
2008,10,20,07,55,8.70
2008,10,20,07,56,8.70
2008,10,20,07,57,8.70
2008,10,20,07,58,8.70
2008,10,20,07,59,8.70
2008,10,20,08,00,8.70
2008,10,20,08,01,8.70
2008,10,20,08,02,8.70
2008,10,20,08,03,8.70
2008,10,20,08,04,8.70
2008,10,20,08,05,8.70
2008,10,20,08,06,8.70
2008,10,20,08,07,8.70
2008,10,20,08,08,8.70
2008,10,20,08,09,8.70
2008,10,20,08,10,8.70
2008,10,20,08,11,8.70
2008,10,20,08,12,8.70
2008,10,20,08,13,8.70
2008,10,20,08,14,8.70
2008,10,20,08,15,8.70
2008,10,20,08,16,8.70
2008,10,20,08,17,8.70
2008,10,20,08,18,8.70
2008,10,20,08,19,8.70
2008,10,20,08,20,8.70
2008,10,20,08,21,8.70
2008,10,20,08,22,8.70
2008,10,20,08,23,8.70
2008,10,20,08,24,8.70
2008,10,20,08,25,8.70
2008,10,20,08,26,8.70
2008,10,20,08,27,8.70
2008,10,20,08,28,8.70
2008,10,20,08,29,8.70
2008,10,20,08,30,8.80
2008,10,20,08,31,8.80
2008,10,20,08,32,8.80
2008,10,20,08,33,8.80
2008,10,20,08,34,8.80
2008,10,20,08,35,8.80
2008,10,20,08,36,8.80
2008,10,20,08,37,8.80
2008,10,20,08,38,8.80
2008,10,20,08,39,8.70
2008,10,20,08,40,8.70
2008,10,20,08,41,8.70
2008,10,20,08,42,8.70
2008,10,20,08,43,8.70
2008,10,20,08,44,8.70
2008,10,20,08,45,8.70
2008,10,20,08,46,8.70
2008,10,20,08,47,8.70
2008,10,20,08,48,8.70
2008,10,20,08,49,8.70
2008,10,20,08,50,8.70
2008,10,20,08,51,8.70
2008,10,20,08,52,8.70
2008,10,20,08,53,8.70
2008,10,20,08,54,8.70
2008,10,20,08,55,8.80
2008,10,20,08,56,8.80
2008,10,20,08,57,8.80
2008,10,20,08,58,8.80
2008,10,20,08,59,8.90
2008,10,20,09,00,8.90
2008,10,20,09,01,8.90
2008,10,20,09,02,9.00
2008,10,20,09,03,9.00
2008,10,20,09,04,9.00
2008,10,20,09,05,9.10
2008,10,20,09,06,9.10
2008,10,20,09,07,9.10
2008,10,20,09,08,9.20
2008,10,20,09,09,9.20
2008,10,20,09,10,9.20
2008,10,20,09,11,9.20
2008,10,20,09,12,9.20
2008,10,20,09,13,9.20
2008,10,20,09,14,9.20
2008,10,20,09,15,9.20
2008,10,20,09,16,9.20
2008,10,20,09,17,9.20
2008,10,20,09,18,9.20
2008,10,20,09,19,9.20
2008,10,20,09,20,9.20
2008,10,20,09,21,9.20
2008,10,20,09,22,9.20
2008,10,20,09,23,9.20
2008,10,20,09,24,9.20
2008,10,20,09,25,9.20
2008,10,20,09,26,9.20
2008,10,20,09,27,9.20
2008,10,20,09,28,9.20
2008,10,20,09,29,9.30
2008,10,20,09,30,9.30
2008,10,20,09,31,9.30
2008,10,20,09,32,9.30
2008,10,20,09,33,9.30
2008,10,20,09,34,9.30
2008,10,20,09,35,9.30
2008,10,20,09,36,9.30
2008,10,20,09,37,9.30
2008,10,20,09,38,9.30
2008,10,20,09,39,9.30
2008,10,20,09,40,9.30
2008,10,20,09,41,9.30
2008,10,20,09,42,9.30
2008,10,20,09,43,9.40
2008,10,20,09,44,9.40
2008,10,20,09,45,9.50
2008,10,20,09,46,9.50
2008,10,20,09,47,9.50
2008,10,20,09,48,9.50
2008,10,20,09,49,9.40
2008,10,20,09,50,9.50
2008,10,20,09,51,9.50
2008,10,20,09,52,9.50
2008,10,20,09,53,9.50
2008,10,20,09,54,9.50
2008,10,20,09,55,9.50
2008,10,20,09,56,9.50
2008,10,20,09,57,9.60
2008,10,20,09,58,9.60
